Location: Peebles
(55.6412°N, 3.1714°W)
Time: 11:15:46
(UTC+00:00)

CUTE-I - Pass Details

Date: 14 December 2023
Orbit: 807 x 823 km, 98.7° (Epoch: 24 February)

Event Time Altitude Azimuth Distance (km) Brightness Sun altitude
Rises 16:42:05 0° 146° (SE) 3,328 ? -7.9°
Reaches altitude 10° 16:44:26 10° 142° (SE) 2,402 ? -8.2°
Maximum altitude 16:49:37 56° 65° (ENE) 975 ? -8.8°
Drops below altitude 10° 16:54:51 10° 349° (N) 2,428 ? -9.5°
Sets 16:57:15 0° 346° (NNW) 3,367 ? -9.8°
